Regional Weather Roundup
Issued by NWS Newport/Morehead, NC

Current Version | Previous Version | Text Only | Print | Product List | Glossary Off
Versions: 1 2 3 4 5 6 7 8 9 10 11 12 13 14 15 16 17 18 19 20 21 22 23 24 25 26 27 28 29 30 31 32 33 34 35 36 37 38 39 40 41 42 43 44 45 46 47 48 49 50
000 ASUS42 KMHX 261725 RWRMHX WEATHER ROUNDUP FOR EASTERN NORTH CAROLINA NATIONAL WEATHER SERVICE NEWPORT/MOREHEAD CITY NC 100 PM EDT THU MAY 26 2016 NOTE: "FAIR" INDICATES FEW OR NO CLOUDS BELOW 12,000 FEET WITH NO SIGNIFICANT WEATHER AND/OR OBSTRUCTIONS TO VISIBILITY NCZ015>017-031-032-045>047-102-103-261800- NORTH COAST CITY SKY/WX TMP DP RH WIND PRES REMARKS EDENTON NOT AVBL ELIZABETH CITY SUNNY 84 65 52 SW12 30.14F KITTY HAWK SUNNY 88 66 47 S5 30.14F MANTEO NOT AVBL $$ NCZ045>047-081-094-103-104-261800- CENTRAL COAST CITY SKY/WX TMP DP RH WIND PRES REMARKS FRISCO SUNNY 78 68 71 SW10 30.19F $$ NCZ095-097-098-100-101-261800- SOUTHERN COAST CITY SKY/WX TMP DP RH WIND PRES REMARKS BEAUFORT SUNNY 79 66 64 SW15 30.19F CEDAR ISLAND NOT AVBL JACKSONVILLE PTSUNNY 82 65 56 S8 30.17F PINEY ISLAND NOT AVBL WILMINGTON PTSUNNY 81 63 54 S6 30.17F $$ NCZ011>013-027>030-043-044-078>080-089-090>093-098-261800- COASTAL PLAIN CITY SKY/WX TMP DP RH WIND PRES REMARKS AHOSKIE NOT AVBL CLINTON SUNNY 85 66 53 S3 30.16F ELIZABETHTOWN MOSUNNY 84 64 49 SW7 30.17F GOLDSBORO SUNNY 87 64 46 S12 30.14F GREENVILLE SUNNY 86 64 48 SW8 30.16F HAVELOCK MOSUNNY 83 67 58 S14G20 30.18F KENANSVILLE PTSUNNY 84 62 48 SW6 30.17F KINSTON SUNNY 86 64 48 SW9 30.17F NEW BERN MOSUNNY 85 62 46 SW12G18 30.17F RICHLANDS MOSUNNY 84 66 54 VRB6 30.17F ROCKY MOUNT MOSUNNY 86 63 45 MISG 30.15F WASHINGTON SUNNY 85 65 51 S9 30.14F WHITEVILLE PTSUNNY 84 64 50 S10G16 30.17F $$ AMZ130-135-150-152-154-156-158-170-250-252-270-ANZ085-086-088-633-658-670-261800- MARINE OBSERVATIONS STATION/POSITION TIME TEMP WIND PRES WAVE SWELL AIR SEA DIR/SP/G HT/PER HT/PER (UTC) (F) (DEG/KT/KT) (MB) (FT/S) (FT/S) CHESAPEAKE LIGHT 1700 71 180/ 17/ 17 1020.9 64 E VA BEACH 1650 63 58 190/ 8/ 8 1021.3 2/ 4 2/ 4 DUCK 1700 80 62 190/ 10/ 12 1020.1 2 E DUCK 1611 64 N/A 2/11 OREGON INLET 1700 74 72 180/ 15/ 17 1021.5 13E OREGON INLT 1700 65 N/A 2/ 9 2/ 9 HATTERAS CG 1700 77 71 190/ 4/ 11 1021.9 DIAMOND BUOY 1650 73 71 230/ 6/ 8 1022.5 2/ 8 2/ 8 CAPE LOOKOUT 1700 78 220/ 7/ 10 1022.3 BEAUFORT LAB 1700 77 71 200/ 10/ 13 1021.6 30 SE NEW RVR IN 1625 75 N/A 2/ 8 27 SE WRIGHTSVLE 1608 76 74 230/ 6/ 8 1022.9 5 SE WRIGHTSVLE 1708 75 74 200/ 12/ 14 1022.8 225 S CAPE HAT 1650 75 78 60/ 12/ 16 1022.5 2/ 8 2/ 8 41 SE CHARLESTON 1650 77 78 250/ 2/ 4 1022.7 2/ 9 2/ 9 $$

USA.gov is the U.S. government's official web portal to all federal, state and local government web resources and services.